Station SJSN4 - 8537121 - Ship John Shoal, NJ Image indicating link to RSS feed of recent meteorological observations for station SJSN4


Conditions at SJSN4 as of
(1:00 am EDT)
0500 GMT on 07/19/2024:
     

Click on the graph icon in the table below to see a time series plot of the last five days of that observation.

5-day plot - Wind Direction Wind Direction (WDIR): N ( 10 deg true )
5-day plot - Wind Speed Wind Speed (WSPD): 7.0 kts
5-day plot - Wind Gust Wind Gust (GST): 8.0 kts
5-day plot - Atmospheric Pressure Atmospheric Pressure (PRES):30.01 in
5-day plot - Pressure Tendency Pressure Tendency (PTDY):+0.01 in ( Rising )
5-day plot - Air Temperature Air Temperature (ATMP): 77.7 °F
5-day plot - Wind Speed at 10 Meters Wind Speed at 10 meters (WSPD10M): 7.8 kts
5-day plot - Wind Speed at 20 Meters Wind Speed at 20 meters (WSPD20M): 7.8 kts
5-day plot -  Wind Speed, Wind Gust and Atmospheric Pressure Combined plot of Wind Speed, Gust, and Air Pressure
NOS Water Level Observation Network Water Level
Previous observations
TIME
(EDT)
5-day plot - Wind Direction
WDIR
 
5-day plot - Wind Speed
WSPD
kts
5-day plot - Wind Gust
GST
kts
5-day plot - Wave Height
WVHT
ft
5-day plot - Dominant Wave Period
DPD
sec
5-day plot - Average Wave Period
APD
sec
5-day plot - Mean Wave Direction
MWD
 
5-day plot - Atmospheric Pressure
PRES
in
5-day plot - Pressure Tendency
PTDY
in
5-day plot - Air Temperature
ATMP
°F
5-day plot - Water Temperature
WTMP
°F
5-day plot - Dew Point
DEWP
°F
5-day plot - Salinity
SAL
psu
5-day plot - Visibility
VIS
nmi
5-day plot - Tide (above MLLW)
TIDE
ft
2024-07-19 12:54 am N 6.0 8.0----30.01- 77.7-----
2024-07-19 12:48 am N 7.0 7.0----30.01- 77.7-----
2024-07-19 12:42 am N 7.0 7.0----30.01- 77.9-----
2024-07-19 12:36 am N 6.0 8.0----30.01- 77.9-----
2024-07-19 12:30 am N 7.0 8.0----30.01- 78.1-----
2024-07-19 12:24 am N 7.0 8.9----30.01- 78.1-----
2024-07-19 12:18 amNNE 8.0 8.9----30.00- 78.3-----
2024-07-19 12:12 amNNE 8.0 8.9----30.00- 78.3-----
2024-07-19 12:06 amNNE 8.0 8.9----30.00- 78.4-----
2024-07-19 12:00 amNNE 8.0 8.9----30.00+0.02 78.4-----
2024-07-18 11:54 pmNNE 8.0 8.9----30.00- 78.6-----
2024-07-18 11:48 pmNNE 8.0 8.9----30.00- 78.8-----
2024-07-18 11:42 pmNNE 8.0 8.9----30.00- 78.8-----
2024-07-18 11:36 pmNNE 8.0 8.9----30.00- 79.0-----
2024-07-18 11:30 pmNNE 8.9 9.9----29.99- 79.0-----
2024-07-18 11:24 pmNNE 8.9 11.1----29.99- 79.2-----
2024-07-18 11:18 pmNNE 8.9 9.9----29.99- 79.2-----
2024-07-18 11:12 pmNNE 8.9 9.9----29.99- 79.2-----
2024-07-18 11:06 pmNNE 8.0 8.9----29.99- 79.2-----
2024-07-18 11:00 pmNNE 8.0 8.9----29.99+0.04 79.3-----
2024-07-18 10:54 pmNNE 7.0 8.0----29.99- 79.2-----
2024-07-18 10:48 pmNNE 8.0 8.9----29.99- 79.7-----
2024-07-18 10:42 pmNNE 8.0 8.9----30.00- 80.1-----
2024-07-18 10:36 pmNNE 8.9 8.9----30.00- 80.1-----
2024-07-18 10:30 pm N 7.0 8.0----30.00- 79.9-----
2024-07-18 10:24 pm N 6.0 8.0----30.00- 79.7-----
2024-07-18 10:18 pmNNE 7.0 8.9----30.00- 79.7-----
2024-07-18 10:12 pmNNE 8.0 8.9----30.00- 79.9-----
2024-07-18 10:06 pmNNE 8.0 9.9----30.00- 80.4-----
2024-07-18 10:00 pm N 8.0 8.9----29.99+0.06 80.6-----
2024-07-18 09:54 pm N 7.0 8.0----29.99- 80.8-----
2024-07-18 09:48 pm N 7.0 9.9----29.99- 80.8-----
2024-07-18 09:42 pm N 8.0 9.9----29.99- 80.8-----
2024-07-18 09:36 pm N 8.0 9.9----29.99- 80.8-----
2024-07-18 09:30 pm N 7.0 8.0----29.99- 80.6-----
2024-07-18 09:24 pm N 7.0 8.0----29.99- 80.6-----
2024-07-18 09:18 pm N 7.0 8.9----29.99- 80.6-----
2024-07-18 09:12 pm N 6.0 8.0----29.99- 80.6-----
2024-07-18 09:06 pm N 7.0 8.9----29.98- 80.8-----
2024-07-18 09:00 pm N 8.9 9.9----29.98+0.06 80.8-----
2024-07-18 08:54 pm N 8.9 9.9----29.98- 80.8-----
2024-07-18 08:48 pm N 8.9 9.9----29.98- 81.0-----
2024-07-18 08:42 pm N 8.9 11.1----29.97- 81.0-----
2024-07-18 08:36 pm N 8.9 9.9----29.97- 81.1-----
2024-07-18 08:30 pm N 9.9 11.1----29.97- 81.1-----
2024-07-18 08:24 pm N 9.9 12.0----29.96- 81.1-----
2024-07-18 08:18 pm N 11.1 12.0----29.96- 81.3-----
2024-07-18 08:12 pm N 9.9 12.0----29.96- 81.3-----
2024-07-18 08:06 pm N 11.1 12.0----29.96- 81.3-----
2024-07-18 08:00 pm N 11.1 13.0----29.96+0.03 81.3-----
2024-07-18 07:54 pm N 8.9 12.0----29.96- 81.3-----
2024-07-18 07:48 pm N 9.9 12.0----29.96- 81.3-----
2024-07-18 07:42 pm N 9.9 13.0----29.95- 81.1-----
2024-07-18 07:36 pm N 9.9 12.0----29.95- 81.1-----
2024-07-18 07:30 pm N 9.9 12.0----29.95- 81.3-----
2024-07-18 07:24 pm N 12.0 14.0----29.94- 81.1-----
2024-07-18 07:00 pm N 14.0 15.9----29.93+0.00 81.9-----
2024-07-18 06:54 pmNNW 12.0 14.0----29.93- 81.7-----
2024-07-18 06:48 pmNNW 11.1 15.0----29.93- 81.7-----
2024-07-18 06:42 pm N 12.0 15.0----29.93- 81.5-----
2024-07-18 06:36 pm N 12.0 15.0----29.93- 81.5-----
2024-07-18 06:30 pmNNW 14.0 15.0----29.92- 81.7-----
2024-07-18 06:24 pmNNW 13.0 14.0----29.92- 81.7-----
2024-07-18 06:18 pm N 13.0 14.0----29.92- 81.9-----
2024-07-18 06:12 pm N 12.0 14.0----29.92- 81.7-----
2024-07-18 06:06 pm N 12.0 13.0----29.92- 81.9-----
2024-07-18 06:00 pm N 12.0 14.0----29.92-0.03 81.9-----
2024-07-18 05:54 pm N 13.0 15.9----29.92- 82.0-----
2024-07-18 05:48 pm N 14.0 15.9----29.92- 82.0-----
2024-07-18 05:42 pmNNW 15.0 17.1----29.92- 82.0-----
2024-07-18 05:36 pmNNW 15.0 15.9----29.93- 81.9-----
2024-07-18 05:30 pmNNW 15.0 15.9----29.93- 82.0-----
2024-07-18 05:24 pm N 13.0 14.0----29.92- 82.2-----
2024-07-18 05:18 pmNNW 11.1 15.0----29.93- 82.2-----
2024-07-18 05:12 pmNNW 13.0 15.9----29.93- 82.2-----
2024-07-18 05:06 pmNNW 13.0 14.0----29.93- 82.4-----
2024-07-18 05:00 pmNNW 12.0 13.0----29.93-0.02 82.6-----
2024-07-18 04:54 pmNNW 11.1 13.0----29.93- 82.9-----
2024-07-18 04:48 pmNNW 11.1 13.0----29.93- 82.9-----
2024-07-18 04:42 pmNNW 9.9 11.1----29.93- 83.1-----
2024-07-18 04:36 pmNNW 9.9 12.0----29.93- 82.9-----
2024-07-18 04:30 pmNNW 11.1 13.0----29.93- 82.8-----
2024-07-18 04:24 pmNNW 8.0 11.1----29.93- 83.1-----
2024-07-18 04:18 pmNNW 8.0 11.1----29.93- 83.3-----
2024-07-18 04:12 pm N 8.0 9.9----29.93- 83.5-----
2024-07-18 04:06 pmNNW 9.9 11.1----29.93- 83.5-----
2024-07-18 04:00 pmNNW 8.0 8.9----29.93-0.01 83.3-----
2024-07-18 03:54 pm NW 7.0 8.0----29.93- 82.9-----
2024-07-18 03:48 pm NW 6.0 8.9----29.94- 82.8-----
2024-07-18 03:42 pmWNW 7.0 8.9----29.94- 82.6-----
2024-07-18 03:36 pmWNW 6.0 7.0----29.94- 82.4-----
2024-07-18 03:30 pmWNW 5.1 6.0----29.94- 82.4-----
2024-07-18 03:24 pmWNW 6.0 7.0----29.94- 82.0-----
2024-07-18 03:18 pmWNW 5.1 8.0----29.94- 82.2-----
2024-07-18 03:12 pm NW 7.0 8.0----29.95- 82.0-----
2024-07-18 03:06 pmWNW 4.1 5.1----29.95- 82.2-----
2024-07-18 03:00 pmWNW 6.0 7.0----29.95+0.00 81.9-----
2024-07-18 02:54 pmWNW 6.0 7.0----29.95- 81.9-----
2024-07-18 02:48 pmWNW 6.0 6.0----29.95- 81.7-----
2024-07-18 02:42 pm W 4.1 6.0----29.95- 81.7-----
2024-07-18 02:36 pmWNW 5.1 6.0----29.95- 81.1-----
2024-07-18 02:30 pmWNW 5.1 7.0----29.95- 81.1-----
2024-07-18 02:24 pmWNW 6.0 7.0----29.95- 81.0-----
2024-07-18 02:18 pmWNW 5.1 6.0----29.94- 81.0-----
2024-07-18 02:12 pmWNW 4.1 5.1----29.94- 81.0-----
2024-07-18 02:06 pmWNW 5.1 6.0----29.94- 81.0-----
2024-07-18 02:00 pmWNW 4.1 6.0----29.94+0.00 81.1-----
2024-07-18 01:54 pm W 5.1 5.1----29.95- 80.8-----
2024-07-18 01:48 pmWNW 5.1 8.0----29.95-------
2024-07-18 01:42 pmNNW 2.9 5.1----29.95-------
2024-07-18 01:36 pm NW 4.1 5.1----29.95-------
2024-07-18 01:30 pmNNW 2.9 4.1----29.95- 81.1-----
2024-07-18 01:24 pm NW 1.9 7.0----29.95- 81.0-----
2024-07-18 01:18 pmNNW 4.1 5.1----29.95- 80.4-----
2024-07-18 01:12 pmNNE 4.1 5.1----29.94- 80.2-----
2024-07-18 01:06 pmNNE 4.1 6.0----29.94- 79.9-----
2024-07-18 01:00 pm N 5.1 6.0----29.94+0.00 79.7-----
2024-07-18 12:54 pm N 6.0 6.0----29.94- 79.5-----
2024-07-18 12:48 pm N 5.1 8.0----29.94- 79.2-----
2024-07-18 12:42 pm N 7.0 8.9----29.94- 78.6-----
2024-07-18 12:36 pm N 6.0 8.9----29.94- 78.6-----
2024-07-18 12:30 pm N 7.0 8.9----29.94- 78.4-----
2024-07-18 12:24 pmNNE 8.0 11.1----29.94- 78.1-----
2024-07-18 12:18 pm N 8.9 11.1----29.94- 77.9-----
2024-07-18 12:12 pm N 8.0 9.9----29.94- 77.9-----
2024-07-18 12:06 pm N 8.0 9.9----29.95- 77.5-----
2024-07-18 12:00 pmNNW 7.0 8.9----29.95+0.03 77.4-----
2024-07-18 11:54 am N 8.0 9.9----29.95- 77.2-----
2024-07-18 11:48 am N 7.0 8.9----29.95- 77.4-----
2024-07-18 11:42 am N 8.9 9.9----29.95- 77.0-----
2024-07-18 11:36 amNNW 8.0 8.9----29.95- 76.8-----
2024-07-18 11:30 am N 8.0 9.9----29.95- 76.8-----
2024-07-18 11:24 am N 8.0 12.0----29.95- 76.6-----
2024-07-18 11:18 am N 9.9 12.0----29.95- 76.5-----
2024-07-18 11:12 am N 9.9 11.1----29.95- 76.6-----
2024-07-18 11:06 am N 9.9 11.1----29.95- 76.6-----
2024-07-18 11:00 amNNW 8.0 11.1----29.95+0.04 76.5-----
2024-07-18 10:54 amNNW 8.0 11.1----29.94- 76.6-----
2024-07-18 10:48 amNNW 8.9 11.1----29.94- 76.5-----
2024-07-18 10:42 amNNW 8.9 11.1----29.94- 76.6-----
2024-07-18 10:36 amNNW 11.1 13.0----29.95- 76.5-----
2024-07-18 10:30 amNNW 12.0 13.0----29.94- 76.6-----
2024-07-18 10:24 amNNW 11.1 13.0----29.94- 76.8-----
2024-07-18 10:18 am NW 9.9 12.0----29.94- 76.6-----
2024-07-18 10:12 amNNW 11.1 13.0----29.94- 76.6-----
2024-07-18 10:06 amNNW 11.1 12.0----29.94- 76.8-----
2024-07-18 10:00 amNNW 11.1 12.0----29.93+0.04 76.5-----
2024-07-18 09:54 amNNW 9.9 11.1----29.93- 76.6-----
2024-07-18 09:48 am NW 8.9 9.9----29.93- 76.8-----
2024-07-18 09:42 amNNW 8.0 9.9----29.93- 76.8-----
2024-07-18 09:36 amNNW 8.0 9.9----29.93- 76.6-----
2024-07-18 09:30 amNNW 8.9 9.9----29.93- 76.5-----
2024-07-18 09:24 amNNW 8.9 11.1----29.93- 76.8-----
2024-07-18 09:18 amNNW 8.0 9.9----29.93- 77.2-----
2024-07-18 09:12 amNNW 8.9 9.9----29.92- 76.6-----
2024-07-18 09:06 amNNW 8.9 9.9----29.92- 76.5-----
2024-07-18 09:00 amNNW 8.9 9.9----29.92+0.06 76.1-----
2024-07-18 08:54 amNNW 8.0 9.9----29.92- 76.3-----
2024-07-18 08:48 am N 7.0 8.9----29.91- 76.5-----
2024-07-18 08:42 amNNW 7.0 8.0----29.91- 76.1-----
2024-07-18 08:36 amNNW 6.0 8.0----29.91- 75.9-----
2024-07-18 08:30 am NW 6.0 8.0----29.91- 75.9-----
2024-07-18 08:24 amNNW 8.0 8.9----29.91- 75.7-----
2024-07-18 08:18 amNNW 8.0 11.1----29.91- 75.9-----
2024-07-18 08:12 amNNW 8.9 11.1----29.91- 75.9-----
2024-07-18 08:06 amNNW 8.0 11.1----29.91- 76.1-----
2024-07-18 08:00 am N 8.9 11.1----29.91+0.06 75.9-----
2024-07-18 07:54 amNNW 8.9 11.1----29.91- 76.3-----
2024-07-18 07:48 amNNW 8.9 11.1----29.91-------
2024-07-18 07:42 am N 9.9 12.0----29.90-------
2024-07-18 07:36 amNNW 11.1 12.0----29.90-------
2024-07-18 07:30 amNNW 11.1 13.0----29.90- 76.5-----
2024-07-18 07:24 amNNW 9.9 12.0----29.90- 76.6-----
2024-07-18 07:18 amNNW 11.1 13.0----29.90- 76.1-----
2024-07-18 07:12 amNNW 11.1 14.0----29.89- 76.6-----
2024-07-18 07:06 amNNW 12.0 13.0----29.89- 76.3-----
2024-07-18 07:00 amNNW 11.1 14.0----29.89+0.05 76.3-----
2024-07-18 06:54 amNNW 12.0 14.0----29.89- 76.3-----
2024-07-18 06:48 amNNW 14.0 15.0----29.88- 76.5-----
2024-07-18 06:42 am NW 13.0 15.0----29.88- 76.8-----
2024-07-18 06:36 am NW 13.0 14.0----29.88- 77.4-----
2024-07-18 06:30 am NW 12.0 14.0----29.87- 76.6-----
2024-07-18 06:24 am NW 12.0 14.0----29.87- 77.2-----
2024-07-18 06:18 am NW 12.0 14.0----29.87- 77.0-----
2024-07-18 06:12 amNNW 11.1 15.9----29.86- 76.8-----
2024-07-18 06:06 am NW 12.0 15.0----29.86- 77.0-----
2024-07-18 06:00 amWNW 11.1 13.0----29.86+0.03 77.0-----
2024-07-18 05:54 am NW 9.9 13.0----29.86- 77.7-----
2024-07-18 05:48 amNNW 9.9 13.0----29.86- 77.5-----
2024-07-18 05:42 am NW 9.9 13.0----29.86- 77.4-----
2024-07-18 05:36 am NW 12.0 13.0----29.85- 77.2-----
2024-07-18 05:30 am NW 11.1 13.0----29.85- 77.4-----
2024-07-18 05:24 amNNW 11.1 14.0----29.85- 77.0-----
2024-07-18 05:18 amNNW 11.1 13.0----29.85- 77.0-----
2024-07-18 05:12 am NW 9.9 12.0----29.85- 77.4-----
2024-07-18 05:06 am NW 8.0 11.1----29.85- 77.4-----
2024-07-18 05:00 am NW 8.9 9.9----29.84+0.02 77.5-----
2024-07-18 04:54 am NW 8.0 9.9----29.84- 77.4-----
2024-07-18 04:48 am NW 8.9 9.9----29.84-------
2024-07-18 04:42 am NW 8.0 12.0----29.84-------
2024-07-18 04:36 amWNW 9.9 11.1----29.85-------
2024-07-18 04:30 amWNW 8.9 9.9----29.85- 76.8-----
2024-07-18 04:24 amWNW 8.9 11.1----29.84- 76.5-----
2024-07-18 04:18 amWNW 9.9 12.0----29.84- 76.6-----
2024-07-18 04:12 am W 11.1 13.0----29.85- 76.6-----
2024-07-18 04:06 amWNW 12.0 13.0----29.84- 76.6-----
2024-07-18 04:00 am W 12.0 12.0----29.84+0.00 76.6-----
2024-07-18 03:54 am W 9.9 12.0----29.84- 76.5-----
2024-07-18 03:48 am W 9.9 12.0----29.84- 76.6-----
2024-07-18 03:42 am W 9.9 12.0----29.84- 76.5-----
2024-07-18 03:36 am W 9.9 11.1----29.84- 77.0-----
2024-07-18 03:30 amWSW 9.9 12.0----29.84- 77.0-----
2024-07-18 03:24 am SW 8.9 11.1----29.83- 77.0-----
2024-07-18 03:18 am SW 9.9 11.1----29.83- 77.2-----
2024-07-18 03:12 am SW 9.9 11.1----29.83- 77.2-----
2024-07-18 03:06 amSSW 9.9 11.1----29.83- 77.0-----
2024-07-18 03:00 amSSW 8.9 11.1----29.83-0.02 77.4-----
2024-07-18 02:54 amSSW 9.9 11.1----29.83- 77.2-----
2024-07-18 02:48 amSSW 8.9 11.1----29.83- 77.4-----
2024-07-18 02:42 amSSW 9.9 11.1----29.83- 77.4-----
2024-07-18 02:36 amSSW 9.9 11.1----29.83- 77.2-----
2024-07-18 02:30 amSSW 8.9 11.1----29.83- 77.2-----
2024-07-18 02:24 amSSW 9.9 11.1----29.83- 77.4-----
2024-07-18 02:18 amSSW 8.9 9.9----29.83- 77.9-----
2024-07-18 02:12 am SW 7.0 8.0----29.83- 78.3-----
2024-07-18 02:06 amSSW 5.1 6.0----29.83- 78.4-----
2024-07-18 02:00 am S 5.1 6.0----29.83-0.02 78.8-----
2024-07-18 01:54 am S 1.9 5.1----29.83- 78.8-----
2024-07-18 01:48 amSSW 2.9 4.1----29.83- 78.4-----
2024-07-18 01:42 amWSW 1.9 2.9----29.84- 78.3-----
2024-07-18 01:36 am SW 1.9 4.1----29.84- 78.4-----
2024-07-18 01:30 am SW 1.9 2.9----29.84- 78.3-----
2024-07-18 01:24 amWSW 1.9 2.9----29.84- 78.3-----
2024-07-18 01:18 am- 0.0 1.0----29.83- 78.1-----
2024-07-18 01:12 amWSW 1.9 4.1----29.83- 78.1-----
2024-07-18 01:06 amWSW 1.9 2.9----29.83- 78.4-----
2024-07-18 01:00 amWSW 2.9 5.1----29.84-0.02 78.1-----
2024-07-18 12:54 am W 4.1 6.0----29.84- 78.3-----